Theta_e
296 296 297 297 296 296 297 297 297 298 300 301 302 302 305 307 308 308 308 308 309 309 309 309 310 310 309 309 312 315 320 318 324 326 326 325 325 325 324 323 322 321 323 322
297 297 296 297 296 295 296 295 296 297 298 299 300 302 303 303 304 307 308 308 309 308 309 309 309 309 309 309 309 316 322 318 318 322 326 325 324 324 324 323 322 319 320 322
296 297 296 296 296 296 296 296 295 296 296 297 298 299 300 303 304 304 305 307 308 308 309 309 310 309 309 309 310 312 319 316 314 317 321 322 322 321 321 321 322 319 319 321
297 297 296 297 297 296 297 296 295 295 298 299 298 300 298 300 303 305 306 306 306 307 307 308 309 309 309 309 309 310 316 315 313 315 319 321 322 322 321 321 321 320 318 320
297 296 298 298 298 297 297 296 295 296 297 299 299 300 298 299 301 304 306 306 306 306 307 307 307 308 309 308 308 309 309 312 312 312 314 318 319 321 320 320 321 320 318 319
298 297 298 297 297 298 298 297 297 298 299 299 299 299 298 299 301 303 306 306 306 306 307 307 307 308 308 308 308 308 308 309 309 309 311 314 316 318 319 319 320 320 320 317
297 296 297 298 299 299 299 298 297 299 300 300 298 299 299 299 300 302 306 307 306 307 307 307 307 308 307 307 307 306 306 307 308 309 310 310 310 314 317 318 318 318 319 319
296 296 296 296 296 297 298 299 299 299 299 299 299 299 300 300 300 305 302 305 306 306 306 306 306 306 307 307 307 306 306 306 306 307 308 310 310 310 313 316 316 316 317 318
295 295 295 297 298 297 300 300 300 300 300 300 299 299 300 300 300 301 302 303 306 303 302 302 302 303 303 304 305 305 306 306 306 307 307 309 310 311 310 312 314 314 315 316
295 295 295 296 297 299 299 299 301 302 299 298 299 300 299 297 296 296 298 299 299 299 298 298 297 297 299 300 302 303 304 305 306 307 307 308 309 309 309 311 313 312 313 313
295 295 295 296 297 297 299 297 297 302 301 300 300 301 295 294 293 294 295 294 293 293 294 293 292 295 297 298 300 301 302 303 304 304 305 305 306 307 308 309 311 311 311 311
294 294 294 296 297 298 297 297 295 299 300 301 301 299 293 292 292 292 291 291 292 292 291 290 291 292 294 296 298 299 300 301 302 303 303 303 304 305 306 308 309 310 310 310
294 295 295 296 298 298 295 295 293 295 297 300 302 299 293 292 290 289 290 289 289 289 289 289 289 290 291 292 295 297 298 300 301 301 302 302 303 304 305 306 307 307 308 308
294 296 295 295 295 295 296 294 292 297 301 301 300 296 292 291 290 289 288 288 288 288 287 287 289 290 291 292 293 293 296 298 299 299 300 301 302 303 304 304 305 305 306 307
293 294 294 294 294 294 295 293 292 291 293 297 294 291 290 290 289 289 287 287 287 286 286 286 287 289 291 293 293 294 294 295 296 297 297 298 299 300 301 301 302 303 304 305
294 294 293 293 296 297 296 293 292 290 289 292 294 292 289 290 289 287 287 286 286 285 285 285 286 288 289 291 292 293 295 295 295 295 295 295 296 298 298 298 300 301 302 302
294 294 295 295 295 296 298 293 292 290 288 289 290 289 288 289 289 287 286 285 285 284 284 284 285 286 288 289 290 292 292 293 295 296 296 296 296 297 297 298 299 299 300 300
295 293 295 295 296 297 295 292 292 291 288 288 288 287 287 287 289 285 284 284 284 283 283 283 284 286 287 288 289 290 291 292 292 293 294 295 295 295 295 296 297 297 298 298
294 294 295 296 297 296 295 292 291 291 291 287 287 286 286 287 290 288 284 283 283 282 283 283 284 285 286 287 288 289 289 290 290 291 291 292 292 292 292 293 294 294 294 295
294 293 294 295 296 296 294 291 289 290 294 287 286 286 286 288 291 288 283 282 282 283 283 283 284 285 286 286 287 287 288 288 289 289 290 290 291 291 291 292 292 292 292 293
294 294 295 296 296 295 290 290 289 294 292 286 285 285 285 286 285 283 282 282 282 282 283 284 284 284 285 285 285 286 286 287 287 287 288 289 289 290 290 290 291 291 292 292
294 294 295 295 295 296 288 290 292 287 285 285 285 285 284 284 283 283 282 282 282 282 283 284 283 283 284 284 285 285 285 285 285 286 286 287 287 288 288 289 289 289 289 290
295 294 294 294 295 290 287 286 284 283 283 285 284 284 283 284 283 282 282 281 280 281 281 281 283 283 283 284 284 284 284 284 284 285 285 285 285 286 286 286 287 287 288 288
294 291 292 292 292 290 287 285 284 283 284 283 283 283 282 282 281 281 281 280 280 280 280 280 280 281 282 282 283 283 283 284 284 284 284 284 284 284 284 284 284 285 285 285
292 291 291 291 291 287 286 286 285 283 283 283 282 282 280 280 280 280 280 280 280 280 280 280 280 280 280 280 281 281 282 283 283 283 283 283 283 283 283 284 284 284 284 284
292 292 292 294 291 289 288 286 284 283 283 283 282 281 280 280 280 280 280 280 280 280 280 280 280 280 280 280 280 280 280 281 281 283 283 283 283 283 283 283 283 283 283 283
Wind_Speed
20 13 17 23 24 27 27 27 32 29 28 28 31 29 28 25 28 28 32 39 36 36 42 42 40 36 36 36 33 32 33 34 43 48 50 46 46 44 43 42 39 38 38 37
19 21 26 24 23 23 21 22 26 27 31 27 28 28 25 29 29 28 33 31 35 37 34 33 30 31 37 38 38 35 36 38 38 46 50 50 48 47 45 44 41 40 39 38
20 28 24 25 22 24 24 25 25 27 27 28 27 31 29 28 28 37 36 35 36 33 29 26 27 27 31 31 33 37 37 41 37 38 46 44 42 46 45 47 44 43 43 42
15 20 17 21 25 24 25 25 25 25 22 16 19 21 27 28 28 28 26 35 35 37 34 32 32 29 29 29 28 29 37 42 38 35 41 46 50 51 53 52 49 45 43 45
16 20 20 21 24 22 22 21 20 22 20 20 21 13 20 23 28 24 27 36 37 38 36 35 34 31 24 24 29 29 29 34 35 38 39 42 46 50 46 49 49 48 45 48
22 22 16 15 18 17 17 19 17 17 15 16 19 17 18 22 25 19 26 33 36 39 37 33 30 27 28 24 21 22 27 26 26 29 38 41 43 45 46 46 48 50 48 50
17 11 4 7 10 11 17 11 8 8 10 14 16 15 20 14 27 28 24 26 31 32 32 26 28 26 23 21 26 27 28 29 30 32 36 39 42 45 48 49 49 48 49 53
13 18 14 10 20 13 21 8 7 9 12 15 16 7 17 24 28 11 9 14 17 19 4 6 11 12 11 13 18 24 27 30 36 39 41 43 44 44 46 46 50 51 51 50
13 15 27 14 4 5 3 6 16 12 17 13 12 20 23 16 24 18 10 9 14 10 7 5 1 9 13 15 19 22 20 24 30 36 40 42 43 44 43 41 47 51 50 49
8 18 9 10 15 1 11 11 5 5 4 12 12 9 8 13 11 9 10 10 10 8 5 4 4 5 10 12 15 19 21 26 27 29 33 36 39 41 42 38 44 47 49 48
12 6 14 17 12 17 6 9 6 6 4 7 9 4 7 9 11 9 10 11 9 8 8 8 6 8 11 12 14 17 20 24 25 28 30 31 34 36 39 41 44 46 44 45
6 6 11 21 18 1 6 13 12 6 3 6 2 2 5 6 8 9 7 11 12 12 12 11 11 9 7 7 9 11 16 19 24 27 28 29 31 33 36 39 42 45 43 42
7 4 12 11 2 4 11 18 13 12 9 11 6 4 6 8 9 12 10 13 13 13 13 14 13 13 12 11 8 6 8 11 16 21 25 26 26 28 31 34 36 38 38 38
10 7 8 11 16 16 11 20 22 4 4 9 3 6 13 13 14 13 16 17 16 15 17 16 15 14 14 14 13 10 6 5 8 13 18 20 22 24 26 28 30 31 34 36
3 8 12 15 18 17 5 16 19 15 14 7 8 7 14 11 12 13 17 19 20 21 22 20 16 14 14 13 13 13 12 7 3 5 9 14 17 19 21 24 27 29 31 34
4 6 7 13 6 5 4 10 12 12 12 11 8 7 14 8 10 15 19 21 22 23 23 21 18 15 14 13 13 13 12 11 9 4 2 6 10 14 17 20 23 26 29 32
3 4 6 4 7 9 3 9 5 3 10 7 8 7 11 7 8 15 19 20 21 22 22 22 19 15 14 13 12 12 12 11 10 7 5 2 5 10 13 16 20 23 26 29
6 3 4 6 11 1 2 5 2 1 6 8 7 10 9 10 0 18 21 20 21 22 20 19 18 15 13 12 10 10 10 9 8 8 6 4 2 3 8 13 17 20 23 26
5 4 4 4 5 0 3 4 4 5 3 9 9 13 11 20 2 9 28 22 19 19 20 20 18 16 13 12 11 10 8 7 6 5 4 4 3 1 3 7 11 15 19 21
3 5 4 3 4 3 4 9 6 5 2 9 9 10 13 16 5 7 25 19 18 18 17 17 17 15 13 13 11 10 9 8 6 5 4 2 1 2 5 7 9 12 14 16
5 3 5 6 3 1 3 9 4 3 4 9 10 10 12 6 5 14 16 17 16 17 18 16 16 16 15 13 12 11 10 9 8 6 5 3 3 4 6 7 10 12 14 15
3 4 2 3 3 1 5 1 4 2 5 7 8 9 11 9 9 11 13 15 16 18 18 18 17 16 15 13 11 11 10 9 8 7 6 4 3 3 5 7 9 11 12 14
3 1 3 3 3 1 2 1 1 2 4 5 6 6 7 8 10 11 12 13 14 16 17 17 17 16 16 14 13 11 10 9 9 8 6 5 4 3 4 6 8 10 12 13
3 4 3 3 4 4 5 4 2 2 3 3 4 5 6 7 9 9 11 13 14 16 18 17 16 16 15 14 14 13 11 10 8 7 6 5 3 3 3 5 6 8 10 12
10 3 4 6 5 1 7 8 4 3 2 0 1 1 4 7 7 9 10 13 14 15 17 18 17 17 16 15 13 12 11 10 9 8 6 5 4 3 3 4 5 7 8 9
8 7 5 4 6 1 2 10 7 5 4 2 2 2 4 6 6 8 10 11 13 15 16 17 17 16 15 15 14 13 12 10 8 7 7 6 5 4 4 4 4 6 7 8
Wind_Direction
274 286 257 246 245 250 250 253 269 271 273 252 253 266 263 250 246 241 247 241 245 234 234 237 238 239 237 239 233 232 230 228 222 220 218 217 222 223 225 226 227 228 230 227
288 267 261 264 273 275 274 281 277 273 266 265 273 272 271 255 260 249 242 246 242 242 238 232 233 229 234 240 243 225 219 232 223 222 224 222 221 223 226 227 227 228 228 229
272 269 283 285 267 259 256 254 262 267 269 266 266 266 258 262 265 248 256 246 247 249 237 231 230 224 231 233 236 226 217 233 231 224 222 219 221 224 225 226 228 228 224 226
280 277 277 265 257 261 263 262 263 263 267 265 254 261 251 253 256 242 235 241 239 245 245 239 236 234 235 235 234 233 221 235 236 226 221 219 221 221 225 227 229 228 224 226
265 301 289 278 272 269 267 259 262 264 264 270 259 260 265 251 252 246 236 229 233 239 242 237 239 239 237 237 237 237 232 235 237 235 230 227 225 228 229 229 231 231 226 225
273 269 264 265 281 273 268 260 260 262 257 257 246 235 253 235 242 245 230 227 229 233 234 233 235 237 235 228 233 232 228 230 235 236 233 229 231 229 221 230 233 233 229 226
331 334 264 255 288 260 239 224 238 240 222 247 242 227 238 257 227 242 254 216 229 231 233 229 229 230 236 231 243 243 239 234 234 232 232 235 235 231 232 232 236 234 232 228
341 327 333 319 297 289 286 248 235 270 251 271 266 226 243 227 246 211 300 314 235 231 221 245 229 233 239 229 224 240 242 240 237 236 237 234 235 233 232 231 237 239 239 237
322 300 312 307 358 273 346 226 251 247 255 276 273 273 247 259 222 249 316 296 248 71 56 8 261 215 232 230 221 218 222 238 237 238 238 238 236 234 232 229 237 240 242 241
305 300 310 313 317 159 293 317 280 202 260 259 251 270 8 7 10 3 12 20 16 26 20 358 334 261 244 243 237 233 228 224 225 235 239 240 239 240 237 228 233 236 239 240
295 263 291 306 316 315 303 340 326 269 238 275 279 79 4 356 359 1 27 30 22 16 3 351 315 292 280 266 258 248 243 235 230 226 235 238 237 238 238 235 231 238 240 242
319 291 286 294 299 269 331 320 317 291 240 243 257 74 28 12 12 1 10 23 19 20 14 12 14 352 331 300 268 255 245 242 235 228 228 235 238 238 239 238 235 240 242 245
313 262 308 314 167 343 336 344 321 267 256 265 310 88 40 39 22 14 11 20 21 14 13 17 22 18 17 11 350 305 262 244 236 229 225 230 234 237 238 240 240 241 242 241
313 263 265 277 290 311 325 354 352 220 282 267 303 61 10 13 11 7 11 17 20 17 18 18 20 25 27 27 25 15 345 274 235 227 222 225 231 236 238 240 238 238 238 236
274 276 293 285 282 285 11 11 4 17 358 24 56 49 6 9 6 1 5 14 17 16 15 13 13 19 24 29 33 33 30 14 293 229 230 229 229 231 234 236 236 234 233 234
264 281 321 299 305 268 360 15 14 15 358 12 20 59 359 359 23 16 14 14 14 12 7 6 9 17 18 20 25 29 34 33 28 6 274 245 241 236 232 232 233 233 231 231
278 300 309 288 318 303 171 1 22 46 18 336 20 343 335 360 35 24 12 13 11 8 5 4 7 15 11 14 17 24 28 30 35 36 31 306 242 236 235 234 232 231 229 228
282 277 275 293 302 38 75 41 277 130 59 11 360 354 355 342 31 42 21 11 8 4 5 8 12 16 14 14 15 19 19 24 29 34 38 35 7 243 229 227 227 227 225 221
248 273 292 298 315 168 162 29 350 356 40 18 2 356 354 339 195 53 10 9 6 8 13 15 19 19 16 14 14 13 13 15 16 23 32 54 54 65 184 195 204 209 210 206
227 238 263 306 291 350 34 347 338 304 228 10 10 7 356 357 21 5 349 358 4 15 18 14 20 22 23 22 17 10 11 10 9 6 353 349 200 192 190 190 191 191 192 195
311 320 298 311 307 125 37 331 339 269 17 355 359 358 2 12 346 319 344 359 8 11 16 16 19 20 19 17 17 16 13 11 9 1 349 328 269 238 230 219 208 204 204 203
290 321 340 291 266 312 1 257 335 1 340 350 349 353 346 344 351 354 358 1 8 12 16 22 20 18 16 14 13 11 7 6 359 354 348 339 303 263 237 232 228 221 217 211
277 301 305 260 328 99 358 84 328 296 297 330 328 341 342 347 3 9 10 8 9 16 18 18 17 15 16 15 14 8 4 359 356 353 347 336 317 282 247 235 228 219 215 215
229 171 232 316 170 221 196 205 276 281 268 301 314 337 355 2 9 18 18 20 20 19 20 19 17 13 11 11 9 3 358 354 353 349 340 332 320 302 262 233 221 215 214 215
277 218 250 257 237 218 229 223 216 239 246 285 326 36 37 36 20 31 29 25 20 18 16 13 10 6 3 360 357 353 346 344 341 338 330 324 314 286 255 237 224 219 216 212
210 225 206 250 146 205 143 187 206 195 202 193 148 92 61 60 36 31 25 15 6 4 2 360 359 355 352 352 349 343 335 329 317 321 319 312 302 290 275 258 244 233 222 215